FW6369 Weather Reports


Display with metric or nautical units.
time (UTC)temp
F
wind
direction
speed
MPH
gust
MPH
rain 1hr
in
rain 24hr
in
rain mn
in
humidity
%
barometer
mb
20260507113054 52 149 0.0 3.0 0.00 0.00 0.00 94 1018.8
20260507111549 52 0 0.0 4.0 0.00 0.00 0.00 94 1018.9
20260507110059 52 167 0.0 3.0 0.00 0.00 0.00 94 1018.9
20260507104552 52 0 0.0 4.0 0.00 0.00 0.00 94 1018.9
20260507103050 52 122 1.0 4.0 0.00 0.00 0.00 93 1018.9
20260507101557 52 93 0.0 3.0 0.00 0.00 0.00 94 1019.0
20260507100053 52 121 1.0 6.0 0.00 0.00 0.00 93 1019.1
20260507094556 53 136 1.0 3.0 0.00 0.00 0.00 93 1018.9
20260507093050 53 117 1.0 3.0 0.00 0.00 0.00 93 1019.1
20260507091547 53 113 2.0 7.0 0.00 0.00 0.00 92 1019.3
20260507090054 53 0 1.0 3.0 0.00 0.00 0.00 93 1019.3
20260507084558 53 136 2.0 6.0 0.00 0.00 0.00 92 1019.4
20260507083049 53 103 2.0 6.0 0.00 0.00 0.00 92 1019.3
20260507081550 53 109 4.0 7.0 0.00 0.00 0.00 92 1019.2
20260507080056 53 105 3.0 7.0 0.00 0.00 0.00 92 1019.2
20260507074549 53 114 2.0 5.0 0.00 0.00 0.00 92 1019.1
20260507073104 53 143 1.0 7.0 0.00 0.00 0.00 92 1019.2
20260507071551 53 107 1.0 6.0 0.00 0.00 0.00 92 1019.1
20260507070051 53 114 2.0 7.0 0.00 0.00 0.00 92 1019.0
20260507064604 53 98 2.0 7.0 0.00 0.00 0.00 92 1019.0
20260507063057 53 131 2.0 7.0 0.00 0.00 0.00 92 1018.9
20260507061551 53 150 2.0 6.0 0.00 0.00 0.00 91 1018.9
20260507060055 54 117 2.0 7.0 0.00 0.00 0.00 91 1018.8
20260507054553 54 120 2.0 6.0 0.00 0.00 0.00 91 1018.8
20260507053052 54 125 2.0 7.0 0.00 0.00 0.00 90 1018.8
20260507051557 54 123 1.0 5.0 0.00 0.00 0.00 90 1018.7
20260507044601 55 103 2.0 7.0 0.00 0.00 0.00 89 1018.7
20260507043053 55 90 2.0 7.0 0.00 0.00 0.00 88 1018.6
20260507041549 56 138 2.0 7.0 0.00 0.00 0.00 87 1018.6
20260507040107 57 136 3.0 10.0 0.00 0.00 0.00 86 1018.6
20260507034612 58 121 3.0 7.0 0.00 0.00 0.00 83 1018.5
20260507033106 59 135 2.0 8.0 0.00 0.00 0.00 82 1018.5
20260507031549 60 107 3.0 8.0 0.00 0.00 0.00 80 1018.3
20260507030048 61 136 3.0 8.0 0.00 0.00 0.00 78 1018.2
20260507024557 62 113 3.0 8.0 0.00 0.00 0.00 77 1018.2
20260507023048 63 97 5.0 9.0 0.00 0.00 0.00 75 1017.9
20260507021557 64 144 4.0 9.0 0.00 0.00 0.00 74 1017.8
20260507020050 66 168 4.0 8.0 0.00 0.00 0.00 73 1018.0
20260507014547 67 123 4.0 9.0 0.00 0.00 0.00 71 1018.1
20260507013050 68 93 5.0 11.0 0.00 0.00 0.00 69 1018.0
20260507011549 69 142 5.0 9.0 0.00 0.00 0.00 67 1018.0
20260507010054 70 138 6.0 11.0 0.00 0.00 0.00 66 1018.0
20260507004554 70 125 5.0 11.0 0.00 0.00 0.00 65 1018.0
20260507003053 71 127 6.0 11.0 0.00 0.00 0.00 63 1017.9
20260507001608 72 155 2.0 11.0 0.00 0.00 0.00 63 1017.9
20260507000054 72 103 4.0 10.0 0.00 0.00 0.00 62 1018.0
20260506234558 73 108 4.0 11.0 0.00 0.00 0.00 62 1017.9
20260506233053 74 205 3.0 8.0 0.00 0.00 0.00 60 1018.0
20260506231553 74 214 3.0 10.0 0.00 0.00 0.00 62 1018.2
20260506230054 75 191 2.0 6.0 0.00 0.00 0.00 61 1018.3
20260506224604 75 265 2.0 10.0 0.00 0.00 0.00 62 1018.3
20260506223054 75 211 1.0 9.0 0.00 0.00 0.00 63 1018.5
20260506221552 75 182 1.0 8.0 0.00 0.00 0.00 63 1018.6
20260506220106 75 200 2.0 8.0 0.00 0.00 0.00 64 1018.8
20260506214551 73 92 5.0 11.0 0.00 0.00 0.00 66 1018.9
20260506213051 74 109 5.0 14.0 0.00 0.00 0.00 65 1018.9
20260506211555 75 200 3.0 7.0 0.00 0.00 0.00 63 1019.1
20260506210055 74 212 2.0 8.0 0.00 0.00 0.00 66 1019.2
20260506204547 74 118 2.0 9.0 0.00 0.00 0.00 66 1019.3
20260506203058 75 136 3.0 6.0 0.00 0.00 0.00 64 1019.5
20260506201553 75 185 2.0 7.0 0.00 0.00 0.00 64 1019.5
20260506200052 74 206 1.0 8.0 0.00 0.00 0.00 66 1019.6
20260506194552 73 116 3.0 8.0 0.00 0.00 0.00 64 1019.7
20260506193053 72 205 1.0 6.0 0.00 0.00 0.00 65 1020.0
20260506191552 71 156 2.0 6.0 0.00 0.00 0.00 68 1020.0
20260506190051 69 109 2.0 6.0 0.00 0.00 0.00 68 1020.2
20260506184553 70 101 2.0 7.0 0.00 0.00 0.00 69 1020.2
20260506183056 69 123 1.0 7.0 0.00 0.00 0.00 70 1020.2
20260506181620 70 0 0.0 6.0 0.00 0.00 0.00 70 1020.2
20260506180055 71 208 2.0 5.0 0.00 0.00 0.00 69 1020.2
20260506174556 69 274 1.0 4.0 0.00 0.00 0.00 70 1020.3
20260506173121 67 317 1.0 4.0 0.00 0.00 0.00 73 1020.3
20260506171602 67 321 1.0 4.0 0.00 0.00 0.00 73 1020.4
20260506170104 65 300 1.0 4.0 0.00 0.00 0.00 76 1020.6
20260506164553 64 287 1.0 6.0 0.00 0.00 0.00 78 1020.6
20260506163048 63 271 1.0 3.0 0.00 0.00 0.00 80 1020.6
20260506161555 61 259 1.0 5.0 0.00 0.00 0.00 81 1020.7
20260506160110 60 346 0.0 3.0 0.00 0.00 0.00 85 1020.6
20260506154559 58 241 0.0 3.0 0.00 0.00 0.00 86 1020.6
20260506153055 58 0 0.0 2.0 0.00 0.00 0.00 88 1020.6
20260506151555 57 120 0.0 3.0 0.00 0.00 0.00 89 1020.6
20260506150052 56 0 1.0 2.0 0.00 0.00 0.00 90 1020.5
20260506144554 55 0 0.0 1.0 0.00 0.01 0.00 91 1020.6
20260506143053 55 0 0.0 2.0 0.00 0.01 0.00 92 1020.5
20260506141550 55 0 0.0 2.0 0.00 0.01 0.00 92 1020.4
20260506140053 54 0 0.0 1.0 0.00 0.01 0.00 93 1020.3
20260506134559 54 0 0.0 1.0 0.00 0.01 0.00 93 1020.1
20260506133058 54 0 0.0 1.0 0.00 0.01 0.00 92 1020.1
20260506131602 55 0 0.0 0.0 0.00 0.01 0.00 92 1020.0
20260506130054 55 0 0.0 0.0 0.00 0.01 0.00 92 1019.9
20260506124549 55 0 0.0 1.0 0.00 0.01 0.00 91 1019.8
20260506123051 54 0 0.0 0.0 0.00 0.01 0.00 91 1019.7
20260506121548 55 0 0.0 1.0 0.00 0.01 0.00 91 1019.5
20260506120100 54 0 0.0 2.0 0.00 0.01 0.00 91 1019.5
20260506114553 55 0 0.0 1.0 0.00 0.01 0.00 91 1019.4